Погода в Шателе

Франция     46°15′58″N   6°50′29″E
темп.,
°C
ветер,
м/с
пор.,
м/с
влажн.,
%
обл.,
%
осадки,
мм/ч
давл.,
гПа
погр.,
м
5 марта, пт
пт501:000ю118587 0.1 102026
04:00−1ю118864 0.0 101925
07:00+1юз119882 1.1 102068
10:00+3с129277 0.6 1019312
13:00+3с229487 1.3 1019353
16:00+3с239091 0.4 1019497
19:00+1с129891 0.6 1021105
22:000всв119595 0.1 102379
6 марта, сб
сб601:00−3юв119470 0.1 102439
04:00−3юв119229 0.0 102538
07:00−4юв118629 0.0 102654
10:00+2ссз117812 0.0 1026276
13:00+4ссз117812 0.0 1026487
16:00+4ссз21837 0.1 1025465
19:00−1юв11957 0.1 102625
22:00−1ююв22900 0.0 102825
7 марта, вс
вс701:00−1ююв22846 0.0 102829
04:00−1ююв228869 0.0 102631
07:00−1ю129153 0.0 102628
10:00+4зюз118286 0.0 1024407
13:00+5з117786 0.3 1022690
16:00+5з127871 1.1 1019598
19:00+2юз119186 2.4 102028
22:000ю1195100 0.4 102126
8 марта, пн
пн801:000юз0196100 0.6 102041
04:00+1зсз0199100 0.6 101961
07:000с119996 1.0 1020101
10:00+1с129698 0.4 1019254
13:00+3с228196 0.7 1018681
16:00+3с228293 0.3 1017685
19:00−1св119268 0.4 101934
22:00−2юв119111 0.0 102025
9 марта, вт
вт901:00−3ююв118811 0.0 102155
04:00−3ююв11873 0.0 102134
07:00−4вюв11862 0.0 102224
10:00+2ссв12691 0.0 1021526
13:00+4с22620 0.0 1021875
16:00+4с22667 0.0 1019821
19:00−1всв11859 0.0 102228
22:00−2ююв22840 0.0 102426